DRGON53 LCRA-EGVA

Flight info

Callsign DRGON53
Flight time 5h 10m
Altitude 60000
Route PHA DCT CLD DCT FSK DCT BUI DCT KIS DCT LBL DCT SUL DCT BNE DCT CPT
Aircraft U2/M-SDFGRY/S

Departure

Time 2026-04-26 12:00
Airport RAF Akrotiri (LCRA)

Arrival

Time 2026-04-26 17:11
Airport RAF Fairford (EGVA)
Time Latitude Longitude Altitude Speed Heading
2026-04-26 11:50 34.58749 32.98608 88 ft 0 kts 313°
2026-04-26 11:55 34.58758 32.98602 87 ft 5 kts
2026-04-26 11:55 34.58811 32.98652 83 ft 13 kts 24°
2026-04-26 11:55 34.58847 32.98666 82 ft 0 kts 17°
2026-04-26 11:55 34.58848 32.98666 82 ft 1 kts 17°
2026-04-26 11:56 34.58889 32.98654 81 ft 12 kts 306°
2026-04-26 11:56 34.58930 32.98495 76 ft 25 kts 287°
2026-04-26 11:56 34.58975 32.98323 74 ft 14 kts 285°
2026-04-26 11:56 34.59003 32.98233 74 ft 3 kts 283°
2026-04-26 11:57 34.59011 32.98188 75 ft 7 kts 283°
2026-04-26 11:57 34.59032 32.98105 77 ft 13 kts 287°
2026-04-26 11:57 34.59065 32.97975 79 ft 18 kts 287°
2026-04-26 11:57 34.59111 32.97805 84 ft 23 kts 288°
2026-04-26 11:58 34.59167 32.97592 84 ft 17 kts 287°
2026-04-26 11:58 34.59192 32.97490 82 ft 12 kts 287°
2026-04-26 11:58 34.59233 32.97388 82 ft 14 kts 313°
2026-04-26 11:58 34.59322 32.97344 82 ft 13 kts
2026-04-26 11:59 34.59398 32.97388 84 ft 12 kts 68°
2026-04-26 11:59 34.59383 32.97479 83 ft 0 kts 106°
2026-04-26 12:00 34.59310 32.97755 83 ft 109 kts 107°
2026-04-26 12:00 34.59073 32.98595 2010 ft 127 kts 109°
2026-04-26 12:00 34.58855 32.99296 3829 ft 117 kts 125°
2026-04-26 12:01 34.58218 32.99579 5446 ft 128 kts 187°
2026-04-26 12:01 34.57692 32.99142 7299 ft 112 kts 227°
2026-04-26 12:01 34.57544 32.98334 8844 ft 121 kts 267°
2026-04-26 12:01 34.57904 32.97510 10322 ft 131 kts 302°
2026-04-26 12:02 34.58693 32.97032 11630 ft 147 kts 348°
2026-04-26 12:02 34.59357 32.97080 12453 ft 155 kts 17°
2026-04-26 12:02 34.60321 32.98071 14119 ft 143 kts 83°
2026-04-26 12:02 34.60323 32.99154 15307 ft 132 kts 126°
2026-04-26 12:03 34.59760 32.99839 16519 ft 123 kts 176°
2026-04-26 12:03 34.59054 32.99501 17787 ft 131 kts 230°
2026-04-26 12:03 34.58983 32.98445 19077 ft 154 kts 274°
2026-04-26 12:03 34.59440 32.96923 19429 ft 232 kts 285°
2026-04-26 12:04 34.60032 32.95256 21664 ft 216 kts 285°
2026-04-26 12:04 34.60513 32.93975 24136 ft 166 kts 285°
2026-04-26 12:04 34.60936 32.92878 25577 ft 149 kts 284°
2026-04-26 12:04 34.61357 32.91731 26543 ft 158 kts 282°
2026-04-26 12:05 34.61679 32.90473 27613 ft 160 kts 278°
2026-04-26 12:05 34.61975 32.89214 28735 ft 161 kts 278°
2026-04-26 12:05 34.62280 32.87946 29799 ft 162 kts 279°
2026-04-26 12:05 34.62591 32.86645 30754 ft 166 kts 279°
2026-04-26 12:06 34.62906 32.85335 31637 ft 167 kts 279°
2026-04-26 12:06 34.63227 32.84004 32508 ft 168 kts 279°
2026-04-26 12:06 34.63549 32.82670 33323 ft 170 kts 279°
2026-04-26 12:06 34.63878 32.81295 34065 ft 173 kts 279°
2026-04-26 12:07 34.64206 32.79927 34817 ft 174 kts 279°
2026-04-26 12:07 34.64541 32.78528 35553 ft 175 kts 279°
2026-04-26 12:07 34.64879 32.77125 36266 ft 176 kts 279°
2026-04-26 12:07 34.65219 32.75705 36924 ft 178 kts 279°
2026-04-26 12:08 34.65559 32.74289 37570 ft 179 kts 279°
2026-04-26 12:08 34.65904 32.72849 38216 ft 178 kts 278°
2026-04-26 12:08 34.66243 32.71424 38903 ft 181 kts 279°
2026-04-26 12:08 34.66569 32.70049 39547 ft 184 kts 278°
2026-04-26 12:09 34.66832 32.68936 40041 ft 187 kts 279°
2026-04-26 12:09 34.67190 32.67422 40736 ft 188 kts 279°
2026-04-26 12:09 34.67551 32.65907 41397 ft 191 kts 279°
2026-04-26 12:09 34.67919 32.64355 42067 ft 192 kts 280°
2026-04-26 12:10 34.68291 32.62791 42695 ft 195 kts 279°
2026-04-26 12:10 34.68663 32.61225 43332 ft 196 kts 280°
2026-04-26 12:10 34.69040 32.59630 43952 ft 198 kts 280°
2026-04-26 12:10 34.69420 32.58030 44498 ft 202 kts 279°
2026-04-26 12:11 34.69810 32.56369 45019 ft 207 kts 279°
2026-04-26 12:11 34.70213 32.54649 45222 ft 225 kts 280°
2026-04-26 12:11 34.70661 32.52705 45307 ft 249 kts 281°
2026-04-26 12:11 34.71214 32.50654 45708 ft 265 kts 291°
2026-04-26 12:12 34.72326 32.48823 46410 ft 274 kts 305°
2026-04-26 12:12 34.73595 32.47131 47310 ft 266 kts 305°
2026-04-26 12:12 34.74748 32.45562 48590 ft 242 kts 304°
2026-04-26 12:12 34.75467 32.44578 49151 ft 234 kts 304°
2026-04-26 12:13 34.76918 32.42566 49614 ft 243 kts 304°
2026-04-26 12:13 34.78058 32.40973 49929 ft 252 kts 304°
2026-04-26 12:13 34.79212 32.39369 50395 ft 254 kts 305°
2026-04-26 12:13 34.80375 32.37754 50894 ft 255 kts 305°
2026-04-26 12:14 34.81558 32.36111 51352 ft 258 kts 305°
2026-04-26 12:14 34.82739 32.34467 51778 ft 261 kts 304°
2026-04-26 12:14 34.83937 32.32799 52210 ft 263 kts 304°
2026-04-26 12:14 34.85155 32.31102 52639 ft 266 kts 304°
2026-04-26 12:15 34.86380 32.29395 53056 ft 269 kts 305°
2026-04-26 12:15 34.87605 32.27684 53463 ft 272 kts 305°
2026-04-26 12:15 34.88865 32.25925 53831 ft 275 kts 305°
2026-04-26 12:15 34.90130 32.24160 54166 ft 277 kts 305°
2026-04-26 12:16 34.91388 32.22402 54501 ft 279 kts 305°
2026-04-26 12:16 34.92659 32.20627 54821 ft 280 kts 306°
2026-04-26 12:16 34.93956 32.18813 55147 ft 282 kts 306°
2026-04-26 12:16 34.95246 32.17007 55460 ft 285 kts 306°
2026-04-26 12:17 34.96565 32.15162 55763 ft 288 kts 306°
2026-04-26 12:17 34.97877 32.13324 56061 ft 290 kts 306°
2026-04-26 12:17 34.99215 32.11450 56359 ft 292 kts 306°
2026-04-26 12:17 35.00544 32.09585 56647 ft 294 kts 306°
2026-04-26 12:18 35.01908 32.07671 56938 ft 296 kts 306°
2026-04-26 12:18 35.03252 32.05783 57225 ft 298 kts 306°
2026-04-26 12:18 35.04612 32.03872 57500 ft 300 kts 306°
2026-04-26 12:18 35.05989 32.01936 57775 ft 302 kts 306°
2026-04-26 12:19 35.07372 31.99989 58043 ft 304 kts 306°
2026-04-26 12:19 35.08757 31.98038 58294 ft 306 kts 306°
2026-04-26 12:19 35.10157 31.96066 58550 ft 308 kts 306°
2026-04-26 12:19 35.11554 31.94094 58790 ft 310 kts 306°
2026-04-26 12:20 35.12965 31.92103 59019 ft 312 kts 306°
2026-04-26 12:20 35.14396 31.90081 59240 ft 314 kts 306°
2026-04-26 12:20 35.15843 31.88036 59474 ft 316 kts 306°
2026-04-26 12:20 35.17269 31.86021 59709 ft 317 kts 306°
2026-04-26 12:21 35.18727 31.83960 59916 ft 320 kts 306°
2026-04-26 12:21 35.21711 31.79728 59918 ft 336 kts 306°
2026-04-26 12:22 35.24796 31.75349 59913 ft 347 kts 306°
2026-04-26 12:22 35.28012 31.70780 59921 ft 359 kts 306°
2026-04-26 12:23 35.31316 31.66074 59925 ft 374 kts 307°
2026-04-26 12:23 35.34742 31.61196 59914 ft 378 kts 307°
2026-04-26 12:24 35.38169 31.56315 59909 ft 378 kts 307°
2026-04-26 12:24 35.41591 31.51433 59912 ft 377 kts 307°
2026-04-26 12:25 35.46714 31.44106 59914 ft 376 kts 307°
2026-04-26 12:25 35.50093 31.39267 59914 ft 376 kts 307°
2026-04-26 12:26 35.53494 31.34389 59915 ft 375 kts 306°
2026-04-26 12:26 35.56877 31.29527 59922 ft 375 kts 306°
2026-04-26 12:27 35.60245 31.24677 59921 ft 375 kts 306°
2026-04-26 12:27 35.63621 31.19809 59920 ft 375 kts 306°
2026-04-26 12:28 35.66995 31.14940 59924 ft 375 kts 306°
2026-04-26 12:28 35.70390 31.10031 59927 ft 375 kts 306°
2026-04-26 12:29 35.73749 31.05166 59929 ft 374 kts 306°
2026-04-26 12:30 35.78793 30.97848 59921 ft 374 kts 307°
2026-04-26 12:30 35.82157 30.92958 59929 ft 374 kts 307°
2026-04-26 12:31 35.87179 30.85648 59918 ft 374 kts 306°
2026-04-26 12:31 35.90527 30.80766 59912 ft 374 kts 306°
2026-04-26 12:32 35.93894 30.75847 59901 ft 374 kts 306°
2026-04-26 12:33 35.98901 30.68520 59902 ft 373 kts 306°
2026-04-26 12:33 36.02229 30.63638 59897 ft 373 kts 307°
2026-04-26 12:34 36.05570 30.58732 59901 ft 373 kts 307°
2026-04-26 12:34 36.08895 30.53841 59902 ft 372 kts 307°
2026-04-26 12:35 36.12233 30.48927 59901 ft 372 kts 307°
2026-04-26 12:35 36.15559 30.44024 59903 ft 372 kts 307°
2026-04-26 12:36 36.18888 30.39108 59903 ft 371 kts 307°
2026-04-26 12:36 36.22193 30.34220 59901 ft 371 kts 306°
2026-04-26 12:37 36.25493 30.29331 59910 ft 371 kts 306°
2026-04-26 12:37 36.28812 30.24406 59912 ft 371 kts 306°
2026-04-26 12:38 36.32113 30.19504 59917 ft 371 kts 306°
2026-04-26 12:38 36.35435 30.14560 59937 ft 371 kts 306°
2026-04-26 12:39 36.38775 30.09585 59971 ft 371 kts 306°
2026-04-26 12:39 36.40918 30.06390 59986 ft 370 kts 306°
2026-04-26 12:40 36.44232 30.01441 60015 ft 372 kts 306°
2026-04-26 12:40 36.47548 29.96480 60033 ft 375 kts 306°
2026-04-26 12:41 36.50894 29.91466 60044 ft 378 kts 306°
2026-04-26 12:41 36.54239 29.86446 60049 ft 381 kts 306°
2026-04-26 12:42 36.57626 29.81359 60050 ft 384 kts 306°
2026-04-26 12:42 36.61052 29.76205 60052 ft 387 kts 306°
2026-04-26 12:43 36.64484 29.71030 60051 ft 390 kts 307°
2026-04-26 12:43 36.67959 29.65783 60067 ft 393 kts 307°
2026-04-26 12:44 36.71424 29.60544 60068 ft 396 kts 307°
2026-04-26 12:44 36.74939 29.55220 60067 ft 399 kts 307°
2026-04-26 12:45 36.78482 29.49849 60057 ft 402 kts 307°
2026-04-26 12:45 36.82044 29.44441 60062 ft 404 kts 307°
2026-04-26 12:46 36.85602 29.39031 60042 ft 407 kts 307°
2026-04-26 12:46 36.89237 29.33493 60041 ft 410 kts 306°
2026-04-26 12:47 36.92851 29.27973 60042 ft 413 kts 306°
2026-04-26 12:47 36.96504 29.22385 60028 ft 416 kts 307°
2026-04-26 12:48 37.00177 29.16762 60018 ft 419 kts 306°
2026-04-26 12:48 37.03876 29.11093 60013 ft 422 kts 306°
2026-04-26 12:49 37.07572 29.05413 60009 ft 424 kts 306°
2026-04-26 12:49 37.11308 28.99661 59999 ft 426 kts 306°
2026-04-26 12:50 37.15055 28.93880 60012 ft 426 kts 307°
2026-04-26 12:50 37.18767 28.88147 60000 ft 424 kts 307°
2026-04-26 12:51 37.22474 28.82414 59992 ft 422 kts 307°
2026-04-26 12:51 37.26168 28.76688 59981 ft 421 kts 307°
2026-04-26 12:52 37.29816 28.71028 59993 ft 419 kts 306°
2026-04-26 12:52 37.33493 28.65312 59982 ft 418 kts 306°
2026-04-26 12:53 37.37121 28.59660 59991 ft 416 kts 306°
2026-04-26 12:53 37.40748 28.54003 59999 ft 415 kts 306°
2026-04-26 12:54 37.44349 28.48370 59998 ft 413 kts 306°
2026-04-26 12:54 37.47937 28.42750 59994 ft 412 kts 306°
2026-04-26 12:55 37.51516 28.37135 59996 ft 411 kts 306°
2026-04-26 12:55 37.55109 28.31488 60004 ft 412 kts 306°
2026-04-26 12:56 37.58687 28.25857 60005 ft 412 kts 306°
2026-04-26 12:56 37.62251 28.20239 59997 ft 411 kts 306°
2026-04-26 12:57 37.65830 28.14588 59985 ft 411 kts 306°
2026-04-26 12:57 37.69408 28.08927 59975 ft 411 kts 306°
2026-04-26 12:58 37.74742 28.00466 59941 ft 411 kts 306°
2026-04-26 12:58 37.78296 27.94817 59932 ft 411 kts 306°
2026-04-26 12:59 37.81870 27.89167 59948 ft 410 kts 308°
2026-04-26 12:59 37.85709 27.83826 59957 ft 409 kts 310°
2026-04-26 13:00 37.89533 27.78539 59951 ft 408 kts 309°
2026-04-26 13:00 37.93358 27.73237 59973 ft 407 kts 309°
2026-04-26 13:01 37.97170 27.67941 59971 ft 406 kts 309°
2026-04-26 13:01 38.00967 27.62655 59972 ft 405 kts 309°
2026-04-26 13:02 38.04762 27.57361 59956 ft 404 kts 309°
2026-04-26 13:02 38.08521 27.52109 59959 ft 403 kts 309°
2026-04-26 13:03 38.12327 27.46782 59959 ft 403 kts 309°
2026-04-26 13:03 38.16083 27.41517 59951 ft 402 kts 309°
2026-04-26 13:04 38.19830 27.36255 59957 ft 401 kts 309°
2026-04-26 13:04 38.23576 27.30984 59956 ft 400 kts 309°
2026-04-26 13:05 38.27298 27.25734 59962 ft 400 kts 309°
2026-04-26 13:05 38.31025 27.20473 59969 ft 400 kts 309°
2026-04-26 13:06 38.34748 27.15208 59969 ft 400 kts 309°
2026-04-26 13:06 38.38452 27.09962 59962 ft 399 kts 309°
2026-04-26 13:07 38.42172 27.04685 59963 ft 399 kts 309°
2026-04-26 13:07 38.45890 26.99401 59943 ft 399 kts 309°
2026-04-26 13:08 38.49587 26.94140 59949 ft 399 kts 309°
2026-04-26 13:08 38.53287 26.88860 59965 ft 399 kts 309°
2026-04-26 13:09 38.56997 26.83560 59962 ft 399 kts 309°
2026-04-26 13:09 38.60688 26.78277 59954 ft 399 kts 309°
2026-04-26 13:10 38.64381 26.72984 59965 ft 398 kts 309°
2026-04-26 13:10 38.68064 26.67695 59965 ft 398 kts 309°
2026-04-26 13:11 38.71715 26.62445 59973 ft 397 kts 309°
2026-04-26 13:11 38.75387 26.57155 59970 ft 397 kts 309°
2026-04-26 13:12 38.79044 26.51876 59971 ft 397 kts 309°
2026-04-26 13:12 38.82698 26.46595 59970 ft 396 kts 309°
2026-04-26 13:13 38.86350 26.41312 59968 ft 396 kts 309°
2026-04-26 13:13 38.89968 26.36066 59975 ft 395 kts 309°
2026-04-26 13:14 38.93624 26.30751 59980 ft 395 kts 308°
2026-04-26 13:14 38.97254 26.25466 59973 ft 395 kts 309°
2026-04-26 13:15 39.00874 26.20188 59967 ft 394 kts 309°
2026-04-26 13:15 39.03899 26.15771 59990 ft 394 kts 309°
2026-04-26 13:16 39.08107 26.09620 59987 ft 393 kts 309°
2026-04-26 13:16 39.11727 26.04318 59986 ft 393 kts 309°
2026-04-26 13:17 39.17125 25.96393 59996 ft 393 kts 309°
2026-04-26 13:18 39.22522 25.88447 60002 ft 393 kts 309°
2026-04-26 13:19 39.27915 25.80487 60003 ft 394 kts 309°
2026-04-26 13:19 39.31514 25.75166 60000 ft 394 kts 309°
2026-04-26 13:20 39.35099 25.69857 60000 ft 393 kts 309°
2026-04-26 13:20 39.38678 25.64546 60000 ft 393 kts 309°
2026-04-26 13:21 39.42284 25.59187 59998 ft 393 kts 309°
2026-04-26 13:21 39.45861 25.53860 59995 ft 393 kts 309°
2026-04-26 13:22 39.49454 25.48502 60008 ft 394 kts 309°
2026-04-26 13:22 39.53019 25.43175 60004 ft 394 kts 309°
2026-04-26 13:23 39.56601 25.37816 60007 ft 394 kts 309°
2026-04-26 13:23 39.60200 25.32419 60007 ft 394 kts 308°
2026-04-26 13:24 39.63798 25.27016 60010 ft 395 kts 308°
2026-04-26 13:24 39.67378 25.21632 60004 ft 396 kts 308°
2026-04-26 13:25 39.70976 25.16210 60007 ft 396 kts 308°
2026-04-26 13:25 39.74578 25.10771 60008 ft 397 kts 308°
2026-04-26 13:26 39.78169 25.05340 60019 ft 397 kts 308°
2026-04-26 13:26 39.81754 24.99907 60005 ft 398 kts 308°
2026-04-26 13:27 39.85372 24.94417 60003 ft 398 kts 308°
2026-04-26 13:27 39.88957 24.88969 60000 ft 398 kts 308°
2026-04-26 13:28 39.92552 24.83496 60003 ft 399 kts 308°
2026-04-26 13:28 39.96170 24.77978 60003 ft 399 kts 308°
2026-04-26 13:29 39.99790 24.72445 60003 ft 399 kts 308°
2026-04-26 13:29 40.03406 24.66909 59999 ft 399 kts 308°
2026-04-26 13:30 40.06988 24.61412 59996 ft 399 kts 308°
2026-04-26 13:30 40.10594 24.55869 59996 ft 399 kts 308°
2026-04-26 13:31 40.14217 24.50295 59992 ft 399 kts 308°
2026-04-26 13:31 40.17809 24.44757 59989 ft 399 kts 308°
2026-04-26 13:32 40.21415 24.39188 59993 ft 399 kts 308°
2026-04-26 13:32 40.24996 24.33647 60001 ft 399 kts 308°
2026-04-26 13:33 40.28598 24.28059 60002 ft 400 kts 308°
2026-04-26 13:33 40.32187 24.22481 60002 ft 400 kts 308°
2026-04-26 13:34 40.35760 24.16921 59996 ft 401 kts 308°
2026-04-26 13:34 40.39350 24.11326 59993 ft 401 kts 308°
2026-04-26 13:35 40.42929 24.05737 59989 ft 401 kts 308°
2026-04-26 13:35 40.46505 24.00142 59987 ft 401 kts 308°
2026-04-26 13:36 40.50106 23.94500 59990 ft 401 kts 308°
2026-04-26 13:36 40.53686 23.88878 59996 ft 401 kts 308°
2026-04-26 13:37 40.57241 23.83286 60000 ft 401 kts 308°
2026-04-26 13:37 40.60838 23.77618 60000 ft 402 kts 308°
2026-04-26 13:38 40.64386 23.72015 59999 ft 402 kts 308°
2026-04-26 13:38 40.67975 23.66336 60003 ft 401 kts 308°
2026-04-26 13:39 40.71537 23.60692 60008 ft 401 kts 308°
2026-04-26 13:39 40.75101 23.55035 60012 ft 401 kts 308°
2026-04-26 13:40 40.78646 23.49395 60016 ft 401 kts 308°
2026-04-26 13:40 40.82216 23.43707 60016 ft 401 kts 308°
2026-04-26 13:41 40.85771 23.38029 60013 ft 401 kts 308°
2026-04-26 13:41 40.89366 23.32278 60021 ft 401 kts 308°
2026-04-26 13:42 40.92935 23.26563 60026 ft 401 kts 307°
2026-04-26 13:42 40.96464 23.20899 60028 ft 402 kts 307°
2026-04-26 13:43 41.00019 23.15179 60027 ft 402 kts 308°
2026-04-26 13:43 41.03579 23.09439 60029 ft 402 kts 308°
2026-04-26 13:44 41.07133 23.03703 60020 ft 402 kts 308°
2026-04-26 13:44 41.10703 22.97960 60016 ft 403 kts 308°
2026-04-26 13:45 41.14352 22.92259 60015 ft 403 kts 309°
2026-04-26 13:45 41.17987 22.86568 60016 ft 403 kts 309°
2026-04-26 13:46 41.21617 22.80873 60015 ft 403 kts 309°
2026-04-26 13:46 41.25263 22.75145 60017 ft 403 kts 309°
2026-04-26 13:47 41.28861 22.69479 60021 ft 403 kts 309°
2026-04-26 13:47 41.32500 22.63738 60031 ft 403 kts 309°
2026-04-26 13:48 41.36089 22.58065 60046 ft 403 kts 309°
2026-04-26 13:48 41.39721 22.52313 60057 ft 403 kts 309°
2026-04-26 13:49 41.43306 22.46626 60066 ft 402 kts 309°
2026-04-26 13:49 41.46920 22.40879 60076 ft 402 kts 309°
2026-04-26 13:50 41.50523 22.35140 60076 ft 402 kts 309°
2026-04-26 13:50 41.54124 22.29391 60076 ft 403 kts 308°
2026-04-26 13:51 41.57736 22.23616 60073 ft 403 kts 308°
2026-04-26 13:51 41.61318 22.17879 60072 ft 403 kts 308°
2026-04-26 13:52 41.64914 22.12109 60068 ft 404 kts 308°
2026-04-26 13:52 41.68498 22.06345 60065 ft 404 kts 308°
2026-04-26 13:53 41.72091 22.00555 60059 ft 404 kts 308°
2026-04-26 13:53 41.75663 21.94786 60059 ft 405 kts 308°
2026-04-26 13:54 41.79261 21.88966 60062 ft 405 kts 308°
2026-04-26 13:54 41.82864 21.83128 60064 ft 405 kts 308°
2026-04-26 13:55 41.87663 21.75336 60053 ft 406 kts 308°
2026-04-26 13:56 41.93651 21.65582 60065 ft 406 kts 308°
2026-04-26 13:56 41.97241 21.59718 60064 ft 407 kts 308°
2026-04-26 13:57 42.00860 21.53795 60059 ft 407 kts 308°
2026-04-26 13:57 42.04451 21.47907 60065 ft 407 kts 308°
2026-04-26 13:58 42.08033 21.42022 60075 ft 406 kts 308°
2026-04-26 13:58 42.11637 21.36089 60098 ft 407 kts 308°
2026-04-26 13:59 42.15263 21.30106 60094 ft 407 kts 308°
2026-04-26 13:59 42.18836 21.24201 60092 ft 407 kts 308°
2026-04-26 14:00 42.26009 21.12310 60122 ft 407 kts 308°
2026-04-26 14:01 42.29584 21.06366 60137 ft 407 kts 308°
2026-04-26 14:01 42.33147 21.00429 60122 ft 408 kts 308°
2026-04-26 14:02 42.36716 20.94473 60123 ft 408 kts 308°
2026-04-26 14:02 42.40283 20.88505 60122 ft 408 kts 308°
2026-04-26 14:03 42.43848 20.82528 60116 ft 408 kts 308°
2026-04-26 14:03 42.47430 20.76511 60106 ft 408 kts 308°
2026-04-26 14:04 42.50995 20.70510 60103 ft 408 kts 308°
2026-04-26 14:04 42.54562 20.64496 60109 ft 408 kts 308°
2026-04-26 14:05 42.58120 20.58487 60105 ft 408 kts 308°
2026-04-26 14:05 42.61682 20.52457 60099 ft 408 kts 308°
2026-04-26 14:06 42.65213 20.46484 60123 ft 408 kts 308°
2026-04-26 14:06 42.68766 20.40485 60147 ft 407 kts 308°
2026-04-26 14:07 42.72319 20.34470 60145 ft 407 kts 307°
2026-04-26 14:07 42.75864 20.28456 60153 ft 407 kts 307°
2026-04-26 14:08 42.79396 20.22451 60166 ft 407 kts 307°
2026-04-26 14:08 42.82931 20.16431 60161 ft 408 kts 308°
2026-04-26 14:09 42.86468 20.10397 60162 ft 408 kts 307°
2026-04-26 14:09 42.89997 20.04363 60167 ft 408 kts 307°
2026-04-26 14:10 42.93543 19.98288 60161 ft 409 kts 307°
2026-04-26 14:10 42.97084 19.92207 60163 ft 408 kts 308°
2026-04-26 14:11 43.02366 19.83114 60167 ft 409 kts 308°
2026-04-26 14:11 43.05896 19.77025 60157 ft 409 kts 307°
2026-04-26 14:12 43.09441 19.70897 60165 ft 409 kts 307°
2026-04-26 14:12 43.13021 19.64691 60167 ft 409 kts 307°
2026-04-26 14:13 43.18315 19.55490 60171 ft 410 kts 307°
2026-04-26 14:14 43.21860 19.49314 60178 ft 410 kts 307°
2026-04-26 14:14 43.25365 19.43197 60178 ft 410 kts 307°
2026-04-26 14:15 43.28913 19.36995 60184 ft 410 kts 307°
2026-04-26 14:15 43.32457 19.30779 60177 ft 410 kts 307°
2026-04-26 14:16 43.35968 19.24608 60179 ft 411 kts 307°
2026-04-26 14:16 43.39496 19.18396 60185 ft 411 kts 307°
2026-04-26 14:17 43.42997 19.12219 60170 ft 412 kts 307°
2026-04-26 14:17 43.46533 19.05967 60183 ft 412 kts 307°
2026-04-26 14:18 43.50049 18.99738 60181 ft 412 kts 307°
2026-04-26 14:18 43.53581 18.93467 60181 ft 413 kts 307°
2026-04-26 14:19 43.57119 18.87175 60176 ft 413 kts 307°
2026-04-26 14:19 43.60663 18.80855 60168 ft 413 kts 307°
2026-04-26 14:20 43.64198 18.74536 60168 ft 413 kts 307°
2026-04-26 14:20 43.67761 18.68153 60171 ft 413 kts 307°
2026-04-26 14:21 43.71260 18.61871 60160 ft 413 kts 307°
2026-04-26 14:21 43.74760 18.55577 60177 ft 412 kts 307°
2026-04-26 14:22 43.78282 18.49229 60183 ft 412 kts 307°
2026-04-26 14:22 43.81771 18.42927 60185 ft 412 kts 307°
2026-04-26 14:23 43.85225 18.36674 60174 ft 412 kts 307°
2026-04-26 14:23 43.88715 18.30339 60169 ft 412 kts 306°
2026-04-26 14:24 43.92206 18.23989 60152 ft 412 kts 306°
2026-04-26 14:24 43.95660 18.17696 60141 ft 413 kts 306°
2026-04-26 14:25 43.99140 18.11343 60148 ft 412 kts 306°
2026-04-26 14:25 44.02650 18.05056 60147 ft 413 kts 309°
2026-04-26 14:26 44.06547 17.99070 60151 ft 413 kts 311°
2026-04-26 14:26 44.10428 17.93103 60159 ft 413 kts 311°
2026-04-26 14:27 44.14341 17.87070 60167 ft 413 kts 311°
2026-04-26 14:27 44.18189 17.81130 60166 ft 413 kts 311°
2026-04-26 14:28 44.22031 17.75183 60165 ft 413 kts 311°
2026-04-26 14:28 44.25876 17.69214 60164 ft 413 kts 311°
2026-04-26 14:29 44.29719 17.63234 60165 ft 413 kts 311°
2026-04-26 14:29 44.33558 17.57244 60168 ft 413 kts 311°
2026-04-26 14:30 44.37378 17.51273 60168 ft 413 kts 311°
2026-04-26 14:30 44.41226 17.45247 60170 ft 413 kts 311°
2026-04-26 14:31 44.45059 17.39232 60172 ft 413 kts 311°
2026-04-26 14:31 44.48880 17.33219 60177 ft 413 kts 310°
2026-04-26 14:32 44.52723 17.27155 60179 ft 413 kts 310°
2026-04-26 14:32 44.56526 17.21145 60177 ft 413 kts 310°
2026-04-26 14:33 44.60365 17.15064 60172 ft 413 kts 310°
2026-04-26 14:33 44.64164 17.09031 60169 ft 413 kts 310°
2026-04-26 14:34 44.67957 17.02996 60162 ft 413 kts 310°
2026-04-26 14:34 44.71751 16.96949 60159 ft 413 kts 310°
2026-04-26 14:35 44.75549 16.90882 60157 ft 413 kts 310°
2026-04-26 14:35 44.79315 16.84852 60158 ft 413 kts 310°
2026-04-26 14:36 44.83119 16.78746 60158 ft 413 kts 310°
2026-04-26 14:36 44.86880 16.72697 60153 ft 413 kts 310°
2026-04-26 14:37 44.90674 16.66584 60154 ft 413 kts 310°
2026-04-26 14:37 44.94436 16.60509 60152 ft 413 kts 310°
2026-04-26 14:38 44.98197 16.54420 60151 ft 413 kts 310°
2026-04-26 14:38 45.01982 16.48278 60146 ft 413 kts 310°
2026-04-26 14:39 45.05742 16.42162 60146 ft 413 kts 310°
2026-04-26 14:39 45.09477 16.36075 60146 ft 412 kts 310°
2026-04-26 14:40 45.13254 16.29906 60158 ft 412 kts 310°
2026-04-26 14:40 45.17005 16.23769 60158 ft 413 kts 310°
2026-04-26 14:41 45.20744 16.17640 60159 ft 413 kts 309°
2026-04-26 14:41 45.24513 16.11442 60161 ft 413 kts 310°
2026-04-26 14:42 45.28254 16.05276 60159 ft 413 kts 310°
2026-04-26 14:42 45.32003 15.99083 60154 ft 413 kts 310°
2026-04-26 14:43 45.35732 15.92912 60148 ft 414 kts 310°
2026-04-26 14:43 45.39481 15.86695 60151 ft 414 kts 310°
2026-04-26 14:44 45.43219 15.80484 60142 ft 414 kts 310°
2026-04-26 14:44 45.46953 15.74262 60137 ft 414 kts 310°
2026-04-26 14:45 45.50682 15.68035 60137 ft 414 kts 310°
2026-04-26 14:45 45.54402 15.61812 60137 ft 413 kts 310°
2026-04-26 14:46 45.58125 15.55569 60148 ft 413 kts 310°
2026-04-26 14:46 45.61822 15.49356 60142 ft 413 kts 310°
2026-04-26 14:47 45.65535 15.43102 60147 ft 412 kts 310°
2026-04-26 14:47 45.69235 15.36854 60150 ft 412 kts 310°
2026-04-26 14:48 45.72956 15.30554 60145 ft 412 kts 309°
2026-04-26 14:48 45.76630 15.24322 60138 ft 411 kts 309°
2026-04-26 14:49 45.80316 15.18055 60149 ft 411 kts 309°
2026-04-26 14:49 45.84005 15.11771 60159 ft 411 kts 309°
2026-04-26 14:50 45.87677 15.05504 60149 ft 410 kts 309°
2026-04-26 14:50 45.91338 14.99239 60158 ft 410 kts 309°
2026-04-26 14:51 45.95007 14.92949 60157 ft 410 kts 309°
2026-04-26 14:51 45.98648 14.86687 60154 ft 409 kts 309°
2026-04-26 14:52 46.02321 14.80354 60154 ft 409 kts 309°
2026-04-26 14:52 46.05968 14.74057 60154 ft 409 kts 309°
2026-04-26 14:53 46.09607 14.67760 60155 ft 409 kts 309°
2026-04-26 14:53 46.13280 14.61391 60154 ft 409 kts 309°
2026-04-26 14:54 46.16914 14.55074 60150 ft 409 kts 309°
2026-04-26 14:54 46.20577 14.48688 60130 ft 409 kts 309°
2026-04-26 14:55 46.24163 14.42243 60123 ft 409 kts 304°
2026-04-26 14:55 46.27091 14.35210 60139 ft 408 kts 301°
2026-04-26 14:56 46.30033 14.28016 60158 ft 408 kts 301°
2026-04-26 14:56 46.32911 14.20964 60167 ft 408 kts 300°
2026-04-26 14:57 46.35814 14.13836 60172 ft 408 kts 300°
2026-04-26 14:57 46.38682 14.06773 60178 ft 408 kts 301°
2026-04-26 14:58 46.41558 13.99676 60182 ft 408 kts 301°
2026-04-26 14:58 46.44410 13.92622 60188 ft 408 kts 301°
2026-04-26 14:59 46.47290 13.85484 60189 ft 408 kts 301°
2026-04-26 14:59 46.50153 13.78372 60190 ft 408 kts 300°
2026-04-26 15:00 46.53011 13.71251 60195 ft 407 kts 300°
2026-04-26 15:00 46.55847 13.64165 60198 ft 407 kts 300°
2026-04-26 15:01 46.58696 13.57032 60204 ft 407 kts 301°
2026-04-26 15:01 46.61533 13.49908 60206 ft 407 kts 301°
2026-04-26 15:02 46.64394 13.42707 60196 ft 407 kts 301°
2026-04-26 15:02 46.67206 13.35615 60202 ft 405 kts 300°
2026-04-26 15:03 46.70021 13.28494 60204 ft 405 kts 300°
2026-04-26 15:03 46.72807 13.21429 60188 ft 405 kts 300°
2026-04-26 15:04 46.75618 13.14282 60189 ft 404 kts 300°
2026-04-26 15:04 46.78392 13.07207 60202 ft 404 kts 300°
2026-04-26 15:05 46.81172 13.00101 60238 ft 403 kts 300°
2026-04-26 15:05 46.83939 12.93010 60256 ft 402 kts 300°
2026-04-26 15:06 46.86693 12.85932 60254 ft 402 kts 300°
2026-04-26 15:06 46.89445 12.78842 60255 ft 402 kts 300°
2026-04-26 15:07 46.93568 12.68186 60264 ft 403 kts 300°
2026-04-26 15:07 46.96336 12.61006 60259 ft 405 kts 300°
2026-04-26 15:08 46.99091 12.53841 60254 ft 405 kts 300°
2026-04-26 15:08 47.01837 12.46683 60254 ft 405 kts 300°
2026-04-26 15:09 47.04599 12.39465 60253 ft 405 kts 300°
2026-04-26 15:09 47.07341 12.32278 60249 ft 404 kts 299°
2026-04-26 15:10 47.09636 12.26251 60244 ft 405 kts 299°
2026-04-26 15:10 47.12853 12.17775 60249 ft 405 kts 299°
2026-04-26 15:11 47.15583 12.10563 60253 ft 405 kts 299°
2026-04-26 15:11 47.18322 12.03308 60253 ft 406 kts 299°
2026-04-26 15:12 47.21042 11.96086 60254 ft 406 kts 299°
2026-04-26 15:12 47.23785 11.88783 60255 ft 407 kts 299°
2026-04-26 15:13 47.26506 11.81515 60254 ft 407 kts 299°
2026-04-26 15:13 47.29225 11.74233 60255 ft 408 kts 299°
2026-04-26 15:14 47.31947 11.66924 60255 ft 408 kts 299°
2026-04-26 15:14 47.34678 11.59572 60259 ft 409 kts 299°
2026-04-26 15:15 47.37395 11.52235 60251 ft 409 kts 299°
2026-04-26 15:15 47.40111 11.44882 60242 ft 410 kts 299°
2026-04-26 15:16 47.42833 11.37493 60233 ft 411 kts 299°
2026-04-26 15:16 47.45561 11.30066 60243 ft 411 kts 298°
2026-04-26 15:17 47.47820 11.23899 60238 ft 411 kts 298°
2026-04-26 15:17 47.50994 11.15210 60245 ft 412 kts 298°
2026-04-26 15:18 47.53699 11.07786 60256 ft 412 kts 298°
2026-04-26 15:18 47.56400 11.00351 60264 ft 412 kts 298°
2026-04-26 15:19 47.59105 10.92879 60248 ft 413 kts 298°
2026-04-26 15:19 47.61818 10.85367 60230 ft 414 kts 298°
2026-04-26 15:20 47.64526 10.77847 60231 ft 414 kts 299°
2026-04-26 15:20 47.67219 10.70344 60227 ft 414 kts 299°
2026-04-26 15:21 47.69918 10.62811 60219 ft 414 kts 298°
2026-04-26 15:21 47.72596 10.55315 60209 ft 414 kts 298°
2026-04-26 15:22 47.75289 10.47752 60211 ft 414 kts 298°
2026-04-26 15:22 47.77960 10.40230 60207 ft 414 kts 298°
2026-04-26 15:23 47.80653 10.32615 60207 ft 414 kts 298°
2026-04-26 15:23 47.83314 10.25070 60206 ft 414 kts 298°
2026-04-26 15:24 47.85995 10.17456 60208 ft 414 kts 298°
2026-04-26 15:24 47.88657 10.09876 60210 ft 415 kts 298°
2026-04-26 15:25 47.90877 10.03535 60208 ft 415 kts 298°
2026-04-26 15:25 47.93972 9.94669 60204 ft 415 kts 298°
2026-04-26 15:26 47.96629 9.87030 60204 ft 415 kts 298°
2026-04-26 15:26 47.99296 9.79335 60198 ft 415 kts 298°
2026-04-26 15:27 48.01923 9.71742 60197 ft 415 kts 298°
2026-04-26 15:27 48.04588 9.64014 60194 ft 415 kts 298°
2026-04-26 15:28 48.07212 9.56384 60193 ft 415 kts 298°
2026-04-26 15:28 48.09846 9.48702 60194 ft 415 kts 298°
2026-04-26 15:29 48.12474 9.41006 60197 ft 415 kts 298°
2026-04-26 15:30 48.17712 9.25610 60198 ft 415 kts 297°
2026-04-26 15:30 48.20330 9.17881 60197 ft 415 kts 297°
2026-04-26 15:31 48.24240 9.06300 60203 ft 415 kts 297°
2026-04-26 15:32 48.27269 8.97287 60197 ft 415 kts 297°
2026-04-26 15:32 48.30729 8.86948 60201 ft 415 kts 297°
2026-04-26 15:33 48.33306 8.79223 60201 ft 415 kts 297°
2026-04-26 15:33 48.35873 8.71507 60208 ft 415 kts 297°
2026-04-26 15:34 48.38421 8.63884 60195 ft 415 kts 298°
2026-04-26 15:34 48.41247 8.56370 60199 ft 415 kts 300°
2026-04-26 15:35 48.44105 8.48792 60190 ft 415 kts 300°
2026-04-26 15:35 48.46938 8.41260 60199 ft 415 kts 300°
2026-04-26 15:36 48.49781 8.33683 60197 ft 415 kts 300°
2026-04-26 15:36 48.52617 8.26097 60206 ft 415 kts 300°
2026-04-26 15:37 48.55441 8.18525 60212 ft 415 kts 300°
2026-04-26 15:37 48.58275 8.10902 60194 ft 415 kts 300°
2026-04-26 15:38 48.61086 8.03310 60113 ft 416 kts 300°
2026-04-26 15:38 48.62490 7.99510 59813 ft 411 kts 300°
2026-04-26 15:38 48.63869 7.95772 59609 ft 406 kts 300°
2026-04-26 15:39 48.65246 7.92038 59364 ft 403 kts 300°
2026-04-26 15:39 48.66596 7.88372 59126 ft 400 kts 300°
2026-04-26 15:39 48.67961 7.84658 58893 ft 396 kts 300°
2026-04-26 15:39 48.68404 7.83454 58813 ft 395 kts 300°
2026-04-26 15:40 48.70607 7.77448 58436 ft 390 kts 300°
2026-04-26 15:40 48.71923 7.73855 58225 ft 388 kts 300°
2026-04-26 15:40 48.73219 7.70312 58000 ft 387 kts 299°
2026-04-26 15:40 48.74526 7.66729 57774 ft 386 kts 299°
2026-04-26 15:41 48.75827 7.63159 57557 ft 386 kts 300°
2026-04-26 15:41 48.77135 7.59562 57332 ft 385 kts 300°
2026-04-26 15:41 48.78416 7.56035 57104 ft 385 kts 300°
2026-04-26 15:41 48.79697 7.52506 56892 ft 384 kts 300°
2026-04-26 15:42 48.80976 7.48978 56669 ft 384 kts 300°
2026-04-26 15:42 48.82261 7.45429 56444 ft 384 kts 300°
2026-04-26 15:42 48.83539 7.41894 56229 ft 383 kts 300°
2026-04-26 15:42 48.84828 7.38323 56001 ft 383 kts 300°
2026-04-26 15:43 48.86101 7.34795 55785 ft 382 kts 299°
2026-04-26 15:43 48.87379 7.31247 55564 ft 382 kts 299°
2026-04-26 15:43 48.89914 7.24197 55127 ft 382 kts 298°
2026-04-26 15:44 48.91189 7.20638 54914 ft 382 kts 299°
2026-04-26 15:44 48.93716 7.13571 54475 ft 382 kts 299°
2026-04-26 15:44 48.94981 7.10027 54259 ft 382 kts 299°
2026-04-26 15:45 48.97514 7.02918 53820 ft 382 kts 299°
2026-04-26 15:45 48.98785 6.99345 53591 ft 382 kts 299°
2026-04-26 15:46 49.01325 6.92191 53146 ft 382 kts 299°
2026-04-26 15:46 49.02570 6.88677 52938 ft 382 kts 299°
2026-04-26 15:46 49.03832 6.85110 52712 ft 382 kts 299°
2026-04-26 15:46 49.04250 6.83927 52644 ft 382 kts 299°
2026-04-26 15:47 49.06347 6.77984 52273 ft 382 kts 299°
2026-04-26 15:47 49.08862 6.70834 51833 ft 382 kts 299°
2026-04-26 15:47 49.10114 6.67269 51616 ft 382 kts 299°
2026-04-26 15:48 49.11369 6.63692 51394 ft 380 kts 299°
2026-04-26 15:48 49.12599 6.60178 51182 ft 377 kts 299°
2026-04-26 15:48 49.13842 6.56625 50959 ft 375 kts 299°
2026-04-26 15:48 49.15059 6.53140 50743 ft 375 kts 299°
2026-04-26 15:49 49.16289 6.49614 50526 ft 374 kts 299°
2026-04-26 15:49 49.17516 6.46095 50311 ft 374 kts 299°
2026-04-26 15:49 49.18740 6.42577 50097 ft 374 kts 299°
2026-04-26 15:49 49.19960 6.39063 49884 ft 373 kts 299°
2026-04-26 15:50 49.21171 6.35574 49670 ft 373 kts 299°
2026-04-26 15:50 49.22386 6.32066 49457 ft 373 kts 298°
2026-04-26 15:50 49.23587 6.28595 49251 ft 373 kts 298°
2026-04-26 15:50 49.24795 6.25097 49036 ft 373 kts 298°
2026-04-26 15:51 49.26016 6.21558 48831 ft 372 kts 298°
2026-04-26 15:51 49.27217 6.18071 48617 ft 372 kts 298°
2026-04-26 15:51 49.28432 6.14538 48409 ft 372 kts 298°
2026-04-26 15:51 49.29628 6.11057 48192 ft 372 kts 298°
2026-04-26 15:52 49.30820 6.07584 47991 ft 371 kts 298°
2026-04-26 15:52 49.32033 6.04044 47769 ft 371 kts 298°
2026-04-26 15:52 49.33220 6.00578 47566 ft 371 kts 298°
2026-04-26 15:52 49.34027 5.98217 47415 ft 371 kts 298°
2026-04-26 15:53 49.35612 5.93574 47139 ft 371 kts 298°
2026-04-26 15:53 49.36801 5.90086 46921 ft 370 kts 298°
2026-04-26 15:53 49.37991 5.86590 46710 ft 370 kts 298°
2026-04-26 15:53 49.39177 5.83104 46494 ft 370 kts 298°
2026-04-26 15:54 49.40373 5.79576 46278 ft 370 kts 298°
2026-04-26 15:54 49.41555 5.76090 46069 ft 370 kts 298°
2026-04-26 15:54 49.42728 5.72624 45855 ft 370 kts 298°
2026-04-26 15:54 49.43915 5.69110 45643 ft 369 kts 298°
2026-04-26 15:55 49.45105 5.65588 45426 ft 369 kts 298°
2026-04-26 15:55 49.46291 5.62069 45217 ft 368 kts 298°
2026-04-26 15:55 49.47472 5.58562 45013 ft 368 kts 298°
2026-04-26 15:55 49.48648 5.55065 44831 ft 368 kts 298°
2026-04-26 15:56 49.49830 5.51544 44627 ft 369 kts 298°
2026-04-26 15:56 49.51007 5.48035 44431 ft 369 kts 298°
2026-04-26 15:56 49.52199 5.44477 44213 ft 370 kts 298°
2026-04-26 15:56 49.53369 5.40978 44018 ft 370 kts 298°
2026-04-26 15:57 49.54561 5.37405 43799 ft 371 kts 298°
2026-04-26 15:57 49.55732 5.33886 43596 ft 371 kts 298°
2026-04-26 15:57 49.56922 5.30310 43377 ft 371 kts 298°
2026-04-26 15:57 49.57713 5.27929 43246 ft 371 kts 298°
2026-04-26 15:58 49.59286 5.23191 42952 ft 372 kts 298°
2026-04-26 15:58 49.60463 5.19641 42748 ft 372 kts 298°
2026-04-26 15:58 49.61642 5.16082 42525 ft 372 kts 298°
2026-04-26 15:58 49.62826 5.12500 42319 ft 372 kts 298°
2026-04-26 15:59 49.64001 5.08940 42095 ft 373 kts 298°
2026-04-26 15:59 49.65186 5.05345 41887 ft 372 kts 298°
2026-04-26 15:59 49.66363 5.01771 41663 ft 373 kts 298°
2026-04-26 15:59 49.67543 4.98183 41453 ft 372 kts 298°
2026-04-26 16:00 49.68695 4.94671 41232 ft 367 kts 298°
2026-04-26 16:00 49.69851 4.91141 41008 ft 361 kts 298°
2026-04-26 16:00 49.70962 4.87745 40799 ft 356 kts 298°
2026-04-26 16:00 49.72086 4.84302 40589 ft 352 kts 298°
2026-04-26 16:01 49.73179 4.80954 40377 ft 348 kts 298°
2026-04-26 16:01 49.74263 4.77625 40150 ft 346 kts 298°
2026-04-26 16:01 49.75340 4.74316 39921 ft 343 kts 298°
2026-04-26 16:01 49.76403 4.71046 39705 ft 340 kts 298°
2026-04-26 16:02 49.77476 4.67747 39497 ft 339 kts 298°
2026-04-26 16:02 49.78545 4.64453 39295 ft 341 kts 298°
2026-04-26 16:02 49.79602 4.61190 39082 ft 341 kts 298°
2026-04-26 16:02 49.80309 4.59007 38944 ft 341 kts 298°
2026-04-26 16:03 49.81735 4.54594 38669 ft 341 kts 298°
2026-04-26 16:03 49.82783 4.51344 38472 ft 340 kts 298°
2026-04-26 16:03 49.83846 4.48045 38272 ft 340 kts 298°
2026-04-26 16:03 49.84894 4.44786 38079 ft 339 kts 298°
2026-04-26 16:04 49.85952 4.41495 37885 ft 338 kts 298°
2026-04-26 16:04 49.86989 4.38263 37693 ft 337 kts 298°
2026-04-26 16:04 49.88030 4.35016 37498 ft 337 kts 298°
2026-04-26 16:04 49.89078 4.31740 37309 ft 336 kts 297°
2026-04-26 16:05 49.90110 4.28512 37118 ft 335 kts 297°
2026-04-26 16:05 49.91148 4.25264 36932 ft 334 kts 297°
2026-04-26 16:05 49.92186 4.22013 36742 ft 334 kts 297°
2026-04-26 16:05 49.93206 4.18811 36586 ft 334 kts 297°
2026-04-26 16:06 49.94232 4.15584 36414 ft 334 kts 297°
2026-04-26 16:06 49.95258 4.12355 36236 ft 334 kts 297°
2026-04-26 16:06 49.96280 4.09135 36053 ft 334 kts 297°
2026-04-26 16:06 49.97304 4.05905 35867 ft 335 kts 297°
2026-04-26 16:07 49.98336 4.02646 35678 ft 335 kts 297°
2026-04-26 16:07 49.99353 3.99428 35488 ft 333 kts 297°
2026-04-26 16:07 50.00363 3.96225 35293 ft 326 kts 297°
2026-04-26 16:07 50.01358 3.93067 35105 ft 322 kts 297°
2026-04-26 16:08 50.02337 3.89957 34920 ft 321 kts 297°
2026-04-26 16:08 50.02980 3.87914 34802 ft 320 kts 297°
2026-04-26 16:08 50.04281 3.83770 34524 ft 319 kts 297°
2026-04-26 16:08 50.05246 3.80691 34332 ft 317 kts 297°
2026-04-26 16:09 50.06221 3.77581 34142 ft 316 kts 297°
2026-04-26 16:09 50.07178 3.74522 33959 ft 314 kts 297°
2026-04-26 16:09 50.08130 3.71471 33773 ft 313 kts 297°
2026-04-26 16:09 50.09078 3.68432 33589 ft 311 kts 297°
2026-04-26 16:10 50.10018 3.65413 33412 ft 310 kts 297°
2026-04-26 16:10 50.10984 3.62308 33235 ft 309 kts 297°
2026-04-26 16:10 50.11919 3.59299 33065 ft 308 kts 297°
2026-04-26 16:10 50.12864 3.56256 32889 ft 307 kts 297°
2026-04-26 16:11 50.13789 3.53276 32715 ft 306 kts 297°
2026-04-26 16:11 50.14720 3.50271 32542 ft 306 kts 297°
2026-04-26 16:11 50.15649 3.47268 32368 ft 305 kts 297°
2026-04-26 16:11 50.16564 3.44310 32194 ft 305 kts 297°
2026-04-26 16:12 50.17493 3.41294 32017 ft 304 kts 297°
2026-04-26 16:12 50.18411 3.38314 31842 ft 304 kts 297°
2026-04-26 16:12 50.20236 3.32374 31500 ft 303 kts 296°
2026-04-26 16:13 50.21158 3.29372 31329 ft 303 kts 296°
2026-04-26 16:13 50.22066 3.26410 31159 ft 303 kts 296°
2026-04-26 16:13 50.22969 3.23463 30988 ft 303 kts 296°
2026-04-26 16:13 50.23884 3.20474 30815 ft 303 kts 296°
2026-04-26 16:14 50.24800 3.17477 30640 ft 303 kts 296°
2026-04-26 16:14 50.25711 3.14496 30465 ft 303 kts 296°
2026-04-26 16:14 50.27513 3.08581 30233 ft 299 kts 296°
2026-04-26 16:15 50.28405 3.05645 30239 ft 294 kts 296°
2026-04-26 16:15 50.29271 3.02794 30239 ft 290 kts 296°
2026-04-26 16:15 50.30130 2.99957 30239 ft 287 kts 296°
2026-04-26 16:16 50.31822 2.94369 30242 ft 280 kts 296°
2026-04-26 16:16 50.32652 2.91624 30240 ft 278 kts 296°
2026-04-26 16:16 50.33473 2.88907 30242 ft 277 kts 296°
2026-04-26 16:16 50.34304 2.86156 30241 ft 277 kts 296°
2026-04-26 16:17 50.35125 2.83438 30241 ft 277 kts 296°
2026-04-26 16:17 50.35950 2.80694 30243 ft 277 kts 296°
2026-04-26 16:17 50.36771 2.77966 30244 ft 278 kts 296°
2026-04-26 16:17 50.37585 2.75256 30243 ft 278 kts 296°
2026-04-26 16:18 50.38413 2.72497 30244 ft 278 kts 296°
2026-04-26 16:18 50.40050 2.67033 30247 ft 278 kts 296°
2026-04-26 16:19 50.41692 2.61533 30246 ft 278 kts 296°
2026-04-26 16:19 50.42509 2.58795 30250 ft 278 kts 296°
2026-04-26 16:19 50.43864 2.54245 30248 ft 278 kts 295°
2026-04-26 16:20 50.44954 2.50582 30251 ft 278 kts 295°
2026-04-26 16:20 50.46584 2.45090 30250 ft 278 kts 295°
2026-04-26 16:20 50.47403 2.42324 30247 ft 278 kts 295°
2026-04-26 16:21 50.48215 2.39577 30251 ft 278 kts 295°
2026-04-26 16:21 50.49024 2.36842 30254 ft 279 kts 296°
2026-04-26 16:21 50.49846 2.34054 30256 ft 279 kts 295°
2026-04-26 16:21 50.50670 2.31259 30259 ft 279 kts 295°
2026-04-26 16:22 50.51485 2.28491 30262 ft 280 kts 295°
2026-04-26 16:22 50.52299 2.25729 30263 ft 280 kts 295°
2026-04-26 16:22 50.53126 2.22913 30257 ft 281 kts 295°
2026-04-26 16:22 50.53938 2.20147 30255 ft 281 kts 295°
2026-04-26 16:23 50.54752 2.17367 30256 ft 281 kts 295°
2026-04-26 16:23 50.55568 2.14580 30257 ft 281 kts 295°
2026-04-26 16:23 50.56387 2.11776 30255 ft 281 kts 295°
2026-04-26 16:23 50.57217 2.08938 30254 ft 281 kts 295°
2026-04-26 16:24 50.58026 2.06168 30256 ft 281 kts 295°
2026-04-26 16:24 50.58843 2.03366 30253 ft 281 kts 295°
2026-04-26 16:24 50.59660 2.00563 30253 ft 281 kts 295°
2026-04-26 16:24 50.60482 1.97735 30256 ft 281 kts 295°
2026-04-26 16:25 50.61292 1.94950 30256 ft 281 kts 294°
2026-04-26 16:25 50.62111 1.92130 30257 ft 281 kts 294°
2026-04-26 16:25 50.62933 1.89318 30257 ft 282 kts 295°
2026-04-26 16:25 50.63764 1.86508 30256 ft 282 kts 295°
2026-04-26 16:26 50.64583 1.83731 30253 ft 281 kts 295°
2026-04-26 16:26 50.65135 1.81855 30258 ft 281 kts 295°
2026-04-26 16:26 50.66230 1.78141 30260 ft 281 kts 295°
2026-04-26 16:26 50.67059 1.75325 30262 ft 281 kts 295°
2026-04-26 16:27 50.67883 1.72521 30261 ft 281 kts 295°
2026-04-26 16:27 50.68699 1.69737 30260 ft 281 kts 295°
2026-04-26 16:27 50.69517 1.66952 30260 ft 281 kts 294°
2026-04-26 16:27 50.70335 1.64165 30256 ft 281 kts 294°
2026-04-26 16:28 50.71154 1.61366 30260 ft 281 kts 294°
2026-04-26 16:28 50.71968 1.58580 30264 ft 281 kts 294°
2026-04-26 16:28 50.72792 1.55758 30262 ft 282 kts 294°
2026-04-26 16:28 50.73605 1.52965 30261 ft 282 kts 294°
2026-04-26 16:29 50.74429 1.50134 30259 ft 282 kts 294°
2026-04-26 16:29 50.75238 1.47354 30255 ft 282 kts 294°
2026-04-26 16:29 50.76053 1.44548 30258 ft 282 kts 294°
2026-04-26 16:29 50.76870 1.41738 30257 ft 282 kts 294°
2026-04-26 16:30 50.77694 1.38898 30260 ft 282 kts 294°
2026-04-26 16:30 50.78505 1.36092 30261 ft 282 kts 294°
2026-04-26 16:30 50.79326 1.33255 30267 ft 281 kts 293°
2026-04-26 16:30 50.80132 1.30464 30276 ft 282 kts 293°
2026-04-26 16:31 50.80946 1.27645 30266 ft 282 kts 293°
2026-04-26 16:31 50.81763 1.24811 30272 ft 282 kts 293°
2026-04-26 16:31 50.82585 1.21953 30276 ft 282 kts 293°
2026-04-26 16:31 50.83389 1.19157 30275 ft 282 kts 293°
2026-04-26 16:32 50.84198 1.16335 30278 ft 282 kts 293°
2026-04-26 16:32 50.84750 1.14435 30277 ft 282 kts 294°
2026-04-26 16:32 50.85889 1.10676 30110 ft 284 kts 294°
2026-04-26 16:32 50.86728 1.07902 29913 ft 276 kts 294°
2026-04-26 16:33 50.87541 1.05227 29935 ft 264 kts 294°
2026-04-26 16:33 50.88338 1.02594 29951 ft 265 kts 294°
2026-04-26 16:33 50.89134 0.99958 29860 ft 268 kts 294°
2026-04-26 16:33 50.89946 0.97288 29907 ft 267 kts 294°
2026-04-26 16:34 50.90734 0.94671 29945 ft 267 kts 294°
2026-04-26 16:34 50.91543 0.91980 29781 ft 274 kts 294°
2026-04-26 16:34 50.92403 0.89108 29260 ft 291 kts 294°
2026-04-26 16:34 50.93285 0.86163 28821 ft 303 kts 294°
2026-04-26 16:35 50.94184 0.83156 28309 ft 290 kts 294°
2026-04-26 16:35 50.94995 0.80458 28012 ft 253 kts 294°
2026-04-26 16:35 50.95704 0.78095 27867 ft 224 kts 294°
2026-04-26 16:35 50.96368 0.75878 27649 ft 226 kts 294°
2026-04-26 16:36 50.97039 0.73619 27392 ft 230 kts 294°
2026-04-26 16:36 50.97729 0.71301 27132 ft 232 kts 294°
2026-04-26 16:36 50.98428 0.68957 26861 ft 234 kts 294°
2026-04-26 16:36 50.99114 0.66644 26588 ft 234 kts 294°
2026-04-26 16:37 50.99809 0.64306 26263 ft 227 kts 294°
2026-04-26 16:37 51.00460 0.62123 25952 ft 215 kts 294°
2026-04-26 16:37 51.01099 0.59971 25693 ft 216 kts 294°
2026-04-26 16:37 51.01521 0.58546 25526 ft 217 kts 293°
2026-04-26 16:38 51.02378 0.55642 25167 ft 218 kts 294°
2026-04-26 16:38 51.03016 0.53482 24904 ft 217 kts 294°
2026-04-26 16:38 51.03658 0.51309 24634 ft 215 kts 294°
2026-04-26 16:38 51.04290 0.49170 24376 ft 214 kts 294°
2026-04-26 16:39 51.04924 0.47016 24109 ft 213 kts 294°
2026-04-26 16:39 51.05548 0.44895 23847 ft 212 kts 294°
2026-04-26 16:39 51.06171 0.42782 23585 ft 212 kts 294°
2026-04-26 16:39 51.06792 0.40670 23325 ft 211 kts 294°
2026-04-26 16:40 51.07419 0.38538 23065 ft 211 kts 293°
2026-04-26 16:40 51.08036 0.36439 22811 ft 211 kts 293°
2026-04-26 16:40 51.08658 0.34321 22563 ft 211 kts 292°
2026-04-26 16:40 51.09280 0.32196 22313 ft 211 kts 292°
2026-04-26 16:41 51.09902 0.30071 22067 ft 210 kts 292°
2026-04-26 16:41 51.10521 0.27951 21813 ft 209 kts 292°
2026-04-26 16:41 51.11137 0.25843 21560 ft 209 kts 292°
2026-04-26 16:41 51.11752 0.23731 21302 ft 209 kts 292°
2026-04-26 16:42 51.12358 0.21655 21052 ft 208 kts 292°
2026-04-26 16:42 51.12965 0.19569 20793 ft 208 kts 292°
2026-04-26 16:42 51.13580 0.17455 20520 ft 208 kts 292°
2026-04-26 16:42 51.14189 0.15362 20271 ft 208 kts 292°
2026-04-26 16:43 51.14797 0.13273 20022 ft 208 kts 292°
2026-04-26 16:43 51.15407 0.11173 19779 ft 208 kts 292°
2026-04-26 16:43 51.16017 0.09069 19525 ft 208 kts 292°
2026-04-26 16:43 51.16620 0.06989 19269 ft 207 kts 292°
2026-04-26 16:44 51.17223 0.04905 19017 ft 207 kts 292°
2026-04-26 16:44 51.17826 0.02817 18764 ft 207 kts 292°
2026-04-26 16:44 51.18427 0.00738 18515 ft 207 kts 292°
2026-04-26 16:44 51.19031 -0.01356 18256 ft 207 kts 292°
2026-04-26 16:45 51.19636 -0.03454 18001 ft 206 kts 292°
2026-04-26 16:45 51.20236 -0.05537 17752 ft 206 kts 292°
2026-04-26 16:45 51.20834 -0.07616 17506 ft 206 kts 292°
2026-04-26 16:45 51.21435 -0.09702 17254 ft 206 kts 292°
2026-04-26 16:46 51.22035 -0.11790 17003 ft 206 kts 292°
2026-04-26 16:46 51.22634 -0.13876 16754 ft 206 kts 292°
2026-04-26 16:46 51.23231 -0.15959 16506 ft 206 kts 292°
2026-04-26 16:46 51.23821 -0.18016 16264 ft 206 kts 292°
2026-04-26 16:47 51.24423 -0.20117 16009 ft 206 kts 292°
2026-04-26 16:47 51.25020 -0.22205 15759 ft 206 kts 292°
2026-04-26 16:47 51.25618 -0.24296 15498 ft 206 kts 292°
2026-04-26 16:47 51.26204 -0.26345 15253 ft 205 kts 292°
2026-04-26 16:48 51.26797 -0.28423 15003 ft 204 kts 292°
2026-04-26 16:48 51.27390 -0.30497 14753 ft 203 kts 292°
2026-04-26 16:48 51.27978 -0.32561 14508 ft 203 kts 292°
2026-04-26 16:48 51.28562 -0.34613 14250 ft 203 kts 292°
2026-04-26 16:49 51.29145 -0.36660 14000 ft 202 kts 292°
2026-04-26 16:49 51.29724 -0.38695 13751 ft 202 kts 292°
2026-04-26 16:49 51.30306 -0.40747 13495 ft 203 kts 292°
2026-04-26 16:49 51.30889 -0.42807 13235 ft 203 kts 292°
2026-04-26 16:50 51.31473 -0.44867 12981 ft 203 kts 292°
2026-04-26 16:50 51.32052 -0.46913 12735 ft 203 kts 292°
2026-04-26 16:50 51.32639 -0.48990 12478 ft 203 kts 293°
2026-04-26 16:50 51.33217 -0.51037 12223 ft 203 kts 293°
2026-04-26 16:51 51.33804 -0.53117 11965 ft 203 kts 293°
2026-04-26 16:51 51.34382 -0.55165 11718 ft 203 kts 293°
2026-04-26 16:51 51.34964 -0.57231 11469 ft 203 kts 293°
2026-04-26 16:51 51.35549 -0.59310 11216 ft 203 kts 293°
2026-04-26 16:52 51.36133 -0.61387 10968 ft 203 kts 294°
2026-04-26 16:52 51.36322 -0.62057 10885 ft 203 kts 294°
2026-04-26 16:52 51.37290 -0.65503 10464 ft 203 kts 293°
2026-04-26 16:52 51.37876 -0.67592 10214 ft 203 kts 293°
2026-04-26 16:53 51.38460 -0.69676 9962 ft 204 kts 293°
2026-04-26 16:53 51.39040 -0.71743 9714 ft 204 kts 293°
2026-04-26 16:53 51.39619 -0.73814 9465 ft 203 kts 293°
2026-04-26 16:53 51.40190 -0.75857 9220 ft 203 kts 293°
2026-04-26 16:54 51.40766 -0.77918 8971 ft 202 kts 293°
2026-04-26 16:54 51.41345 -0.79992 8720 ft 202 kts 293°
2026-04-26 16:54 51.41923 -0.82065 8473 ft 202 kts 294°
2026-04-26 16:54 51.42496 -0.84121 8276 ft 202 kts 294°
2026-04-26 16:55 51.43067 -0.86172 8051 ft 202 kts 294°
2026-04-26 16:55 51.43636 -0.88218 7799 ft 201 kts 294°
2026-04-26 16:55 51.44213 -0.90294 7487 ft 201 kts 294°
2026-04-26 16:55 51.44780 -0.92335 7236 ft 202 kts 294°
2026-04-26 16:56 51.45918 -0.96440 6761 ft 197 kts 294°
2026-04-26 16:56 51.46461 -0.98402 6519 ft 192 kts 295°
2026-04-26 16:56 51.46991 -1.00319 6252 ft 181 kts 295°
2026-04-26 16:57 51.47492 -1.02133 6004 ft 178 kts 294°
2026-04-26 16:57 51.47993 -1.03941 5755 ft 177 kts 295°
2026-04-26 16:57 51.49056 -1.07785 5444 ft 199 kts 294°
2026-04-26 16:58 51.49619 -1.09831 5184 ft 197 kts 294°
2026-04-26 16:58 51.49802 -1.10500 5112 ft 194 kts 294°
2026-04-26 16:58 51.51248 -1.15769 4565 ft 192 kts 295°
2026-04-26 16:59 51.51784 -1.17727 4368 ft 190 kts 295°
2026-04-26 16:59 51.52838 -1.21580 4268 ft 188 kts 295°
2026-04-26 17:00 51.53904 -1.25472 4263 ft 192 kts 295°
2026-04-26 17:00 51.54998 -1.29473 4262 ft 195 kts 294°
2026-04-26 17:00 51.55451 -1.31505 4255 ft 196 kts 281°
2026-04-26 17:01 51.55513 -1.33708 4264 ft 196 kts 270°
2026-04-26 17:01 51.55518 -1.35915 4263 ft 197 kts 271°
2026-04-26 17:01 51.55530 -1.38143 4263 ft 198 kts 271°
2026-04-26 17:01 51.55541 -1.40350 4254 ft 194 kts 271°
2026-04-26 17:02 51.55552 -1.42488 4260 ft 189 kts 271°
2026-04-26 17:02 51.55563 -1.44587 4260 ft 185 kts 271°
2026-04-26 17:02 51.55573 -1.46681 4270 ft 186 kts 271°
2026-04-26 17:02 51.55581 -1.48789 4266 ft 189 kts 271°
2026-04-26 17:03 51.55589 -1.50890 4261 ft 192 kts 271°
2026-04-26 17:03 51.55595 -1.53054 4265 ft 193 kts 271°
2026-04-26 17:03 51.55590 -1.55228 4261 ft 194 kts 270°
2026-04-26 17:03 51.55611 -1.57398 4273 ft 194 kts 272°
2026-04-26 17:04 51.55756 -1.59520 4300 ft 187 kts 283°
2026-04-26 17:04 51.56123 -1.61492 4100 ft 180 kts 290°
2026-04-26 17:04 51.56542 -1.63395 3819 ft 182 kts 290°
2026-04-26 17:04 51.56975 -1.65292 3614 ft 180 kts 290°
2026-04-26 17:05 51.57410 -1.67174 3406 ft 178 kts 290°
2026-04-26 17:05 51.57850 -1.69031 3227 ft 177 kts 291°
2026-04-26 17:05 51.58307 -1.70884 3030 ft 177 kts 294°
2026-04-26 17:05 51.58842 -1.72669 2835 ft 177 kts 296°
2026-04-26 17:06 51.59378 -1.74430 2666 ft 176 kts 296°
2026-04-26 17:06 51.59942 -1.76204 2496 ft 175 kts 297°
2026-04-26 17:06 51.60504 -1.77946 2327 ft 175 kts 297°
2026-04-26 17:06 51.61060 -1.79655 2259 ft 169 kts 297°
2026-04-26 17:07 51.61598 -1.81298 2247 ft 164 kts 297°
2026-04-26 17:07 51.62130 -1.82906 2313 ft 158 kts 298°
2026-04-26 17:07 51.62721 -1.84398 2329 ft 157 kts 308°
2026-04-26 17:07 51.63537 -1.85381 2227 ft 144 kts 344°
2026-04-26 17:08 51.64505 -1.85629 2056 ft 134 kts 355°
2026-04-26 17:08 51.65375 -1.85764 1895 ft 118 kts 359°
2026-04-26 17:08 51.66170 -1.85801 1719 ft 111 kts
2026-04-26 17:08 51.66922 -1.85784 1539 ft 106 kts
2026-04-26 17:09 51.67641 -1.85568 1306 ft 106 kts 24°
2026-04-26 17:09 51.68045 -1.85126 1129 ft 106 kts 50°
2026-04-26 17:09 51.68293 -1.83683 773 ft 103 kts 98°
2026-04-26 17:09 51.68285 -1.82539 497 ft 105 kts 91°
2026-04-26 17:10 51.68305 -1.81382 322 ft 97 kts 92°
2026-04-26 17:10 51.68324 -1.80365 281 ft 84 kts 89°
2026-04-26 17:10 51.68339 -1.79474 280 ft 75 kts 88°
2026-04-26 17:10 51.68354 -1.78677 280 ft 66 kts 88°
2026-04-26 17:11 51.68368 -1.77988 280 ft 51 kts 88°
2026-04-26 17:11 51.68377 -1.77530 280 ft 38 kts 88°
2026-04-26 17:11 51.68379 -1.77407 280 ft 0 kts 84°
2026-04-26 17:12 51.68387 -1.77133 280 ft 24 kts 88°
2026-04-26 17:12 51.68396 -1.76888 280 ft 13 kts 65°
2026-04-26 17:13 51.68567 -1.76843 280 ft 12 kts 319°
2026-04-26 17:13 51.68589 -1.76991 280 ft 18 kts 269°
2026-04-26 17:13 51.68576 -1.77463 280 ft 14 kts 251°
2026-04-26 17:14 51.68536 -1.77598 280 ft 9 kts 264°
2026-04-26 17:14 51.68534 -1.77885 280 ft 17 kts 267°
2026-04-26 17:14 51.68566 -1.77952 280 ft 8 kts 359°
2026-04-26 17:15 51.68607 -1.78022 280 ft 7 kts 269°
2026-04-26 17:15 51.68606 -1.78065 280 ft 0 kts 269°